User: anonymous   Login
Location: Laverne
(36.7100°N, 99.8930°W)
Time: 06:02:04
(UTC-05:00)
Language:

Iridium 32 - Orbit

View from above orbital plane
View from above orbital plane
View from above satellite
View from above satellite

Ground track
Ground track

The orbit data is extracted from the following two-line orbital elements,

1 24945U 97051B   18144.52802908 -.00000044 +00000-0 -22701-4 0  9994
2 24945 086.3938 144.4572 0002698 082.1807 277.9695 14.34211211083344
Epoch (UTC): 24 May 2018 12:40:21
Eccentricity: 0.0002698
inclination: 86.3938°
perigee height: 776 km
apogee height: 779 km
right ascension of ascending node: 144.4572°
argument of perigee: 82.1807°
revolutions per day: 14.34211211
mean anomaly at epoch: 277.9695°
orbit number at epoch: 8334

The dashed part of the orbit path shows where the satellite is in the earth's shadow,  

DLR